• Em Portugal
  • Lista de países
  • Para 7 dias
  • Temperatura da água
  • Mapas de satélite
  • Mapa do tempo
  • Widgets de tempo
  • user-avatar
    Iniciar Sessão

    Previsão horária em Nigde

    Hoje, 18 Fevereiro, Domingo

    Tempo Temperatura Precipitação Vento Pressão Humidade
    00:00 +2°C° 0,1 mm 5 m/s 646 mmHg 81%
    01:00 +1°C° 0,1 mm 5 m/s 646 mmHg 81%
    02:00 +1°C° 0,1 mm 5 m/s 646 mmHg 80%
    03:00 +1°C° 0,1 mm 5 m/s 646 mmHg 81%
    04:00 0°C° 0,1 mm 5 m/s 647 mmHg 81%
    05:00 0°C° 0,1 mm 5 m/s 647 mmHg 81%
    06:00 0°C° 0,1 mm 5 m/s 647 mmHg 80%
    07:00 0°C° 0,1 mm 4 m/s 648 mmHg 79%
    08:00 0°C° 0,1 mm 4 m/s 648 mmHg 79%
    09:00 0°C° 0 mm 4 m/s 648 mmHg 75%
    10:00 +1°C° 0 mm 4 m/s 648 mmHg 71%
    11:00 +3°C° 0 mm 4 m/s 649 mmHg 67%
    12:00 +3°C° 0 mm 4 m/s 649 mmHg 64%
    13:00 +4°C° 0 mm 4 m/s 648 mmHg 61%
    14:00 +4°C° 0 mm 4 m/s 648 mmHg 57%
    15:00 +4°C° 0 mm 3 m/s 649 mmHg 57%
    16:00 +4°C° 0 mm 3 m/s 649 mmHg 57%
    17:00 +4°C° 0 mm 3 m/s 649 mmHg 58%
    18:00 +4°C° 0 mm 2 m/s 649 mmHg 60%
    19:00 +3°C° 0 mm 2 m/s 649 mmHg 62%
    20:00 +3°C° 0 mm 1 m/s 649 mmHg 65%
    21:00 +3°C° 0 mm 1 m/s 649 mmHg 65%
    22:00 +3°C° 0 mm 1 m/s 649 mmHg 65%
    23:00 +3°C° 0 mm 1 m/s 649 mmHg 65%

    Amanhã, 19 Fevereiro, Segunda-feira

    Tempo Temperatura Precipitação Vento Pressão Humidade
    00:00 +3°C° 0 mm 1 m/s 649 mmHg 64%
    01:00 +3°C° 0 mm 1 m/s 649 mmHg 62%
    02:00 +3°C° 0 mm 1 m/s 649 mmHg 61%
    03:00 +2°C° 0 mm 1 m/s 648 mmHg 58%
    04:00 +2°C° 0 mm 1 m/s 648 mmHg 55%
    05:00 +2°C° 0 mm 1 m/s 648 mmHg 53%
    06:00 +3°C° 0 mm 1 m/s 648 mmHg 48%
    07:00 +5°C° 0 mm 1 m/s 649 mmHg 44%
    08:00 +6°C° 0 mm 1 m/s 649 mmHg 39%
    09:00 +7°C° 0 mm 1 m/s 649 mmHg 36%
    10:00 +9°C° 0 mm 1 m/s 650 mmHg 33%
    11:00 +10°C° 0 mm 1 m/s 650 mmHg 30%
    12:00 +10°C° 0 mm 2 m/s 650 mmHg 30%
    13:00 +10°C° 0 mm 2 m/s 649 mmHg 31%
    14:00 +12°C° 0 mm 2 m/s 649 mmHg 31%
    15:00 +10°C° 0 mm 2 m/s 649 mmHg 37%
    16:00 +9°C° 0 mm 2 m/s 648 mmHg 43%
    17:00 +8°C° 0 mm 2 m/s 648 mmHg 49%
    18:00 +7°C° 0 mm 2 m/s 648 mmHg 55%
    19:00 +6°C° 0 mm 2 m/s 648 mmHg 61%
    20:00 +5°C° 0 mm 2 m/s 648 mmHg 67%
    21:00 +5°C° 0 mm 2 m/s 648 mmHg 69%
    22:00 +5°C° 0 mm 2 m/s 648 mmHg 72%
    23:00 +4°C° 0 mm 2 m/s 648 mmHg 74%

    Depois de amanhã, 20 Fevereiro, Terça-feira

    Tempo Temperatura Precipitação Vento Pressão Humidade
    00:00 +4°C° 0 mm 2 m/s 648 mmHg 75%
    01:00 +4°C° 0 mm 2 m/s 648 mmHg 75%
    02:00 +4°C° 0 mm 2 m/s 648 mmHg 76%
    03:00 +4°C° 0 mm 2 m/s 648 mmHg 76%
    04:00 +3°C° 0 mm 2 m/s 647 mmHg 77%
    05:00 +4°C° 0 mm 1 m/s 647 mmHg 78%
    06:00 +4°C° 0 mm 2 m/s 648 mmHg 75%
    07:00 +4°C° 0 mm 2 m/s 648 mmHg 73%
    08:00 +5°C° 0 mm 2 m/s 648 mmHg 71%
    09:00 +6°C° 0 mm 2 m/s 649 mmHg 64%
    10:00 +7°C° 0 mm 2 m/s 649 mmHg 57%
    11:00 +8°C° 0 mm 2 m/s 649 mmHg 50%
    12:00 +8°C° 0,1 mm 2 m/s 649 mmHg 50%
    13:00 +9°C° 0,1 mm 2 m/s 648 mmHg 49%
    14:00 +9°C° 0,1 mm 2 m/s 648 mmHg 48%
    15:00 +8°C° 0,1 mm 2 m/s 648 mmHg 51%
    16:00 +8°C° 0,1 mm 2 m/s 647 mmHg 55%
    17:00 +9°C° 0,1 mm 1 m/s 647 mmHg 58%
    18:00 +8°C° 0,1 mm 1 m/s 647 mmHg 62%
    19:00 +8°C° 0,1 mm 1 m/s 647 mmHg 66%
    20:00 +6°C° 0,1 mm 2 m/s 647 mmHg 69%
    21:00 +6°C° 0,1 mm 2 m/s 647 mmHg 71%
    22:00 +5°C° 0,1 mm 2 m/s 647 mmHg 73%
    23:00 +5°C° 0,1 mm 2 m/s 647 mmHg 75%

    21 Fevereiro, Quarta-feira

    Tempo Temperatura Precipitação Vento Pressão Humidade
    00:00 +5°C° 0,1 mm 2 m/s 647 mmHg 76%
    01:00 +6°C° 0,1 mm 1 m/s 647 mmHg 77%
    02:00 +5°C° 0,1 mm 1 m/s 647 mmHg 78%
    03:00 +5°C° 0,1 mm 1 m/s 647 mmHg 79%
    04:00 +5°C° 0,1 mm 1 m/s 647 mmHg 80%
    05:00 +5°C° 0,1 mm 1 m/s 647 mmHg 81%
    06:00 +5°C° 0 mm 1 m/s 647 mmHg 78%
    07:00 +6°C° 0 mm 1 m/s 647 mmHg 75%
    08:00 +6°C° 0 mm 1 m/s 648 mmHg 72%
    09:00 +7°C° 0 mm 1 m/s 648 mmHg 66%
    10:00 +7°C° 0 mm 2 m/s 648 mmHg 60%
    11:00 +8°C° 0 mm 2 m/s 648 mmHg 54%
    12:00 +9°C° 0 mm 2 m/s 648 mmHg 52%
    13:00 +9°C° 0 mm 2 m/s 647 mmHg 50%
    14:00 +10°C° 0 mm 2 m/s 647 mmHg 48%
    15:00 +9°C° 0 mm 2 m/s 647 mmHg 50%
    16:00 +9°C° 0 mm 2 m/s 647 mmHg 52%
    17:00 +8°C° 0 mm 2 m/s 647 mmHg 54%
    18:00 +8°C° 0 mm 2 m/s 647 mmHg 59%
    19:00 +7°C° 0 mm 2 m/s 647 mmHg 64%
    20:00 +6°C° 0 mm 2 m/s 647 mmHg 68%
    21:00 +6°C° 0 mm 2 m/s 647 mmHg 70%
    22:00 +5°C° 0 mm 2 m/s 647 mmHg 72%
    23:00 +5°C° 0 mm 2 m/s 647 mmHg 74%

    22 Fevereiro, Quinta-feira

    Tempo Temperatura Precipitação Vento Pressão Humidade
    00:00 +5°C° 0 mm 2 m/s 647 mmHg 74%
    01:00 +4°C° 0 mm 2 m/s 647 mmHg 74%
    02:00 +4°C° 0 mm 2 m/s 647 mmHg 74%
    03:00 +4°C° 0 mm 2 m/s 646 mmHg 75%
    04:00 +4°C° 0 mm 2 m/s 646 mmHg 75%
    05:00 +4°C° 0 mm 2 m/s 646 mmHg 76%
    06:00 +4°C° 0 mm 2 m/s 646 mmHg 74%
    07:00 +5°C° 0 mm 2 m/s 647 mmHg 71%
    08:00 +5°C° 0 mm 3 m/s 647 mmHg 69%
    09:00 +7°C° 0 mm 3 m/s 647 mmHg 65%
    10:00 +8°C° 0 mm 3 m/s 647 mmHg 60%
    11:00 +9°C° 0 mm 3 m/s 647 mmHg 56%
    12:00 +9°C° 0,1 mm 3 m/s 647 mmHg 55%
    13:00 +9°C° 0,1 mm 3 m/s 646 mmHg 55%
    14:00 +10°C° 0,1 mm 3 m/s 646 mmHg 54%
    15:00 +9°C° 0,1 mm 3 m/s 646 mmHg 58%
    16:00 +9°C° 0,1 mm 3 m/s 645 mmHg 61%
    17:00 +8°C° 0,1 mm 3 m/s 645 mmHg 64%
    18:00 +8°C° 0,2 mm 2 m/s 645 mmHg 67%
    19:00 +7°C° 0,2 mm 2 m/s 645 mmHg 71%
    20:00 +7°C° 0,2 mm 2 m/s 645 mmHg 75%
    21:00 +6°C° 0,4 mm 2 m/s 645 mmHg 76%
    22:00 +6°C° 0,4 mm 2 m/s 644 mmHg 78%
    23:00 +7°C° 0,4 mm 1 m/s 644 mmHg 79%

    23 Fevereiro, Sexta-feira

    Tempo Temperatura Precipitação Vento Pressão Humidade
    00:00 +7°C° 0,4 mm 1 m/s 644 mmHg 80%
    01:00 +7°C° 0,4 mm 1 m/s 644 mmHg 82%
    02:00 +6°C° 0,4 mm 1 m/s 644 mmHg 83%
    03:00 +6°C° 0,6 mm 1 m/s 644 mmHg 84%
    04:00 +6°C° 0,6 mm 1 m/s 643 mmHg 85%
    05:00 +5°C° 0,6 mm 0 m/s 643 mmHg 86%
    06:00 +6°C° 0,3 mm 1 m/s 644 mmHg 84%
    07:00 +6°C° 0,3 mm 1 m/s 644 mmHg 83%
    08:00 +7°C° 0,3 mm 1 m/s 644 mmHg 81%
    09:00 +8°C° 0,2 mm 1 m/s 644 mmHg 77%
    10:00 +8°C° 0,2 mm 1 m/s 645 mmHg 73%
    11:00 +9°C° 0,2 mm 1 m/s 645 mmHg 69%
    12:00 +10°C° 0,2 mm 1 m/s 645 mmHg 67%
    13:00 +10°C° 0,2 mm 1 m/s 644 mmHg 64%
    14:00 +10°C° 0,2 mm 2 m/s 644 mmHg 61%
    15:00 +9°C° 0,1 mm 2 m/s 644 mmHg 62%
    16:00 +9°C° 0,1 mm 2 m/s 644 mmHg 63%
    17:00 +9°C° 0,1 mm 2 m/s 644 mmHg 65%
    18:00 +8°C° 0,1 mm 2 m/s 645 mmHg 67%
    19:00 +8°C° 0,1 mm 2 m/s 645 mmHg 70%
    20:00 +7°C° 0,1 mm 2 m/s 645 mmHg 73%
    21:00 +7°C° 0,1 mm 2 m/s 645 mmHg 75%
    22:00 +6°C° 0,1 mm 2 m/s 645 mmHg 77%
    23:00 +6°C° 0,1 mm 2 m/s 645 mmHg 79%
    Mostrar mais